Regional Weather Roundup
Issued by NWS

Home | Current Version | Previous Version | Text Only | Print | Product List | Glossary Off
Versions: 1 2 3 4 5 6 7 8 9 10 11 12 13 14 15 16 17 18 19 20 21 22 23 24 25 26 27 28 29 30 31 32 33 34 35 36 37 38 39 40 41 42 43 44 45 46 47 48 49 50

000
ASUS43 KLOT 181006
RWRIL

ILLINOIS REGIONAL WEATHER ROUNDUP
NATIONAL WEATHER SERVICE CHICAGO/ROMEOVILLE IL
400 AM CST THU DEC 18 2014

NOTE: "FAIR" INDICATES FEW OR NO CLOUDS BELOW 12,000 FEET WITH NO
SIGNIFICANT WEATHER AND/OR OBSTRUCTIONS TO VISIBILITY.

* THESE STATIONS ARE NOT UNDER NWS QUALITY CONTROL. THEY ALSO MAY NOT
  REPORT WEATHER SUCH AS PRECIPITATION OR FOG.

ILZ001-002-007-009-015-016-024-181100-
NORTHWEST ILLINOIS

CITY           SKY/WX    TMP DP  RH WIND       PRES   REMARKS
MOLINE         MOCLDY    18  14  84 CALM      30.29F
STERLING*      CLEAR     18  12  79 CALM      30.28F
SAVANNA*       PTCLDY    16  13  90 CALM      30.29F
$$

ILZ003-004-008-010-011-017-018-181100-
NORTH CENTRAL ILLINOIS

CITY           SKY/WX    TMP DP  RH WIND       PRES   REMARKS
ROCKFORD       PTCLDY    20  13  74 N6        30.30S WCI  12
FREEPORT*      CLEAR     15  12  89 W3        30.29F
ROCHELLE*      CLOUDY    20  16  83 CALM      30.29S
DE KALB*       CLOUDY    20  15  78 CALM      30.27S
PERU*          PTCLDY    19  17  92 CALM      30.29F
$$

ILZ005-006-012>014-019>023-181100-
NORTHEAST ILLINOIS

CITY           SKY/WX    TMP DP  RH WIND       PRES   REMARKS
CHICAGO-OHARE  PTCLDY    20  14  77 CALM      30.27S
CHICAGO-MIDWAY CLOUDY    26  16  65 CALM      30.28S
AURORA         CLOUDY    24  14  65 CALM      30.28S
LANSING*       CLOUDY    25  18  74 CALM      30.28S
JOLIET*        CLOUDY    22  17  81 CALM      30.28F
WAUKEGAN       CLEAR     17  13  84 CALM      30.26S
DUPAGE AIRPORT CLOUDY    23  16  74 CALM      30.26F
KANKAKEE*      CLOUDY    24  19  80 CALM      30.29F
WHEELING       CLEAR     20  14  77 W3        30.30S
MORRIS*        CLOUDY    20  19  93 W3        30.28F
ROMEOVILLE*    CLOUDY    23  17  77 CALM      30.27F
NORTHERLY ISL    N/A     25  17  72 W5          N/A  WCI  19
$$

LMZ740>746-181100-
SOUTHERN LAKE MICHIGAN

STATION/POSITION SKY/WX   TEMP    WIND        PRES    VSBY  WAVE
                          AIR SEA DIR/SP/G                  HT/PER
                          (F)     (DEG/KT/KT) (MB)    (MI)  (FT/S)
WAUKEGAN HARBOR            20     300/  3/  7   N/A
HARRISON CRIB              24     310/  7/  9   N/A
BURNHAM HARBOR             25     290/  4/  6   N/A
CALUMET HARBOR             25     290/  3/  5 1024.0F
$$

ILZ025>027-034>036-040-047-049-050-058-095>099-181100-
WEST-CENTRAL ILLINOIS

CITY           SKY/WX    TMP DP  RH WIND       PRES   REMARKS
QUINCY         CLOUDY    26  20  77 NE6       30.27F WCI  19
GALESBURG*     MOCLDY    16  15  93 N6        30.27F WCI   8
MACOMB*        PTCLDY    19  17  92 CALM      30.30F
JACKSONVILLE*  CLOUDY    28  24  86 CALM      30.28F
PITTSFIELD*    CLOUDY    28  23  83 CALM      30.29F
$$

ILZ028>032-037-038-041>044-048-051>054-059>061-181100-
CENTRAL ILLINOIS

CITY           SKY/WX    TMP DP  RH WIND       PRES   REMARKS
PONTIAC        PTCLDY    19  17  94 CALM      30.30S
BLOOMINGTON    MOCLDY    21  19  92 N5        30.26F WCI  15
DECATUR        MOCLDY    24  20  84 CALM      30.28S
PEORIA         MOCLDY    20  15  81 N3        30.28F
LACON*         PTCLDY    17  14  90 CALM      30.29F
LINCOLN*       PTCLDY    22  20  91 CALM      30.30S
SPRINGFIELD    PTCLDY    21  18  88 N5        30.28F WCI  15
TAYLORVILLE    MOCLDY    25  21  86 CALM      30.28F
$$

ILZ033-039-045-046-055>057-062-063-181100-
EAST-CENTRAL ILLINOIS

CITY           SKY/WX    TMP DP  RH WIND       PRES   REMARKS
CHAMPAIGN      CLOUDY    25  19  78 NE6       30.25F WCI  18
DANVILLE*      CLOUDY    24  19  81 E6        30.23F WCI  16
RANTOUL*       CLOUDY    25  20  82 CALM      30.26S
MATTOON        CLOUDY    24  18  77 E5        30.26F WCI  18
PARIS*         CLOUDY    26  22  84 CALM      30.26F
$$

ILZ079-100>102-181100-
SOUTHWEST ILLINOIS

CITY           SKY/WX    TMP DP  RH WIND       PRES   REMARKS
ALTON          CLOUDY    28  23  82 E5        30.29F WCI  23
BELLEVILLE     MOCLDY    29  26  86 NE5       30.28S WCI  24
CAHOKIA*       CLOUDY    31  25  78 E5        30.29S WCI  26
SPARTA*        CLOUDY    30  28  90 E5        30.28F WCI  25
$$

ILZ064>066-069>071-074>076-080>082-084>086-088>090-092>094-181100-
SOUTH-CENTRAL ILLINOIS

CITY           SKY/WX    TMP DP  RH WIND       PRES   REMARKS
CARBONDALE     LGT SNOW  31  27  85 NE5       30.27F FOG     WCI  26
CAIRO*         CLOUDY    36  35  97 E3        30.26R
EFFINGHAM*     CLOUDY    26  20  78 E3        30.30R
MARION         LGT SNOW  32  28  86 N5        30.29F WCI  27
MT. VERNON     CLOUDY    28  21  74 CALM      30.31R
CENTRALIA*     CLOUDY    28  24  84 SE3       30.28F
SALEM*         CLOUDY    29  25  83 SE3       30.29F
METROPOLIS*    LGT RAIN  33  33 100 CALM      30.25F
$$

ILZ067-068-072-073-078-083-087-091-181100-
SOUTHEAST ILLINOIS

CITY           SKY/WX    TMP DP  RH WIND       PRES   REMARKS
LAWRENCEVILLE  CLOUDY    26  21  81 NE5       30.28F WCI  20
FLORA*         CLOUDY    26  22  86 NE3       30.31R
FAIRFIELD*     CLOUDY    28  24  84 CALM      30.30R
HARRISBURG*    CLOUDY    31  28  86 NE3       30.29R
ROBINSON*      CLOUDY    26  22  85 NE7       30.29F WCI  18
CARMI*         CLOUDY    31  28  90 N3        30.30R
$$

ABBREVIATIONS USED IN REMARKS
   TC - TEMPERATURE IN CELSIUS
  WCI - WIND CHILL INDEX
   HX - HEAT INDEX
  VSB - VISIBILITY
$$




USA.gov is the U.S. government's official web portal to all federal, state and local government web resources and services.